KSLV-II DUMMY (52895 NORAD) Tracking and Keplerian Element Data

This shows tracking and keplerian element data for the satellite.

Feedback or suggestion? Click here.




ElementValue
Catalog52895
NameKSLV-II DUMMY
Epoch Orbit1415
Epoch Day269.3673226
Epoch Year2022
RAAN57.3176
Inclination98.0358
Eccentricity0.0007451
Argument of Perigee320.9379
Mean Anonmoly39.1281
Mean Motion14.58145673
Decay Rate1.7E-07
L11 52895U 22065B 22269.36732260 .00000017 00000+0 13277-4 0 9995
L22 52895 98.0358 57.3176 0007451 320.9379 39.1281 14.58145673 14152

Live tracking and technical data element details for KSLV-II DUMMY (NORAD 52895). KSLV-II DUMMY can be tracked NOW for your location showing map with azimuth and elevation plus other details from your city location.

Track the satellite on the map from your city or location and see movement details for azimuth, elevation, latitude, longitude, range, height, and movement on the map or in text.







IsCatalogInMostPopularTable: catalog: 52895, numindb: 6
Update: records affected: 1



GetName: 52895 KSLV-II DUMMY

Hit Count: updated at: Thu, 06 Oct 2022 04:28:47 GMT